Volver al catálogo

BREEZE-M DEB

ActivoHEO
NORAD 32034·DEBRIS·🇷🇺 Russia

Lanzado Feb 28, 2006 desde Baikonur Cosmodrome

Loading…

Próximos Pases (próximas 24 horas)

TLE

ActualizadoSource: Space-Track

Época: Sep 12, 2026, 21:13 UTC

1 32034U 06006M   26255.88449836  .00000138  00000-0  22273-3 0  9995
2 32034  51.6405 108.6213 5102779  66.9001 338.1393  5.23963851372902

Sigue BREEZE-M DEB en tiempo real con AllMySat

Download on the App Store